Voltar ao catálogo

SDA_1675

AtivoMilitarPO
NORAD 65985·PAYLOAD·🇺🇸 United States

Lançado Oct 15, 2025 de Vandenberg Space Force Base

Loading…

Próximas Passagens (próximas 24 horas)

TLE

AtualizadoSource: Space-Track

Época: Sep 14, 2026, 14:32 UTC

1 65985U 25230M   26257.60563261  .00000138  00000-0  11236-3 0  9994
2 65985  81.2973 128.7797 0002065 292.5884  67.5055 13.84769451 46182

Acompanhe SDA_1675 em tempo real com AllMySat

Download on the App Store